Location: Appingedam
(53.3222°N, 6.8488°E)
Time: 20:13:00
(UTC+00:00)

Cosmos 2151 - Pass Details

Date: 15 May 2026
Orbit: 556 x 575 km, 82.5° (Epoch: 8 June)

Event Time Altitude Azimuth Distance (km) Brightness Sun altitude
Rises 20:48:32 0° 345° (NNW) 2,778 7.8 -9.8°
Reaches altitude 10° 20:50:46 10° 341° (NNW) 1,873 6.8 -10.0°
Maximum altitude 20:54:48 55° 264° (W) 680 3.5 -10.4°
Drops below altitude 10° 20:58:46 10° 187° (S) 1,846 5.1 -10.7°
Enters shadow 20:59:10 - 186° (S) 2,008 5.2 -10.8°
